GW4332 Weather Reports


time (UTC)temp
C
wind
direction
speed
KPH
gust
KPH
rain 1hr
cm
rain 24hr
cm
rain mn
cm
humidity
%
barometer
mb
20260905141030 18 276 41.8 51.5 0.00 0.00 0.00 68 1021.9
20260905140030 18 278 40.2 49.9 0.00 0.00 0.00 69 1021.8
20260905135029 18 274 41.8 56.3 0.00 0.00 0.00 69 1021.7
20260905134030 18 278 45.1 56.3 0.00 0.00 0.00 72 1021.6
20260905133030 18 266 38.6 51.5 0.00 0.00 0.00 71 1021.5
20260905132030 18 275 43.5 53.1 0.00 0.00 0.00 73 1021.4
20260905131030 18 274 43.5 53.1 0.00 0.00 0.00 72 1021.3
20260905130030 17 277 41.8 53.1 0.00 0.00 0.00 73 1021.3
20260905125030 17 280 43.5 51.5 0.00 0.00 0.00 72 1021.2
20260905124030 18 277 46.7 56.3 0.00 0.00 0.00 71 1021.1
20260905123030 17 262 45.1 56.3 0.00 0.00 0.00 73 1021.0
20260905122030 18 266 41.8 48.3 0.00 0.00 0.00 73 1021.0
20260905121030 17 264 43.5 56.3 0.00 0.00 0.00 72 1020.8
20260905120030 17 253 48.3 59.5 0.00 0.00 0.00 71 1020.6
20260905115030 17 271 45.1 56.3 0.00 0.00 0.00 70 1020.6
20260905114030 17 276 40.2 51.5 0.00 0.00 0.00 71 1020.6
20260905113030 17 288 35.4 46.7 0.00 0.00 0.00 73 1020.5
20260905112030 17 281 45.1 57.9 0.00 0.00 0.00 73 1020.2
20260905111030 17 270 48.3 56.3 0.00 0.00 0.00 73 1020.1
20260905110030 17 261 43.5 57.9 0.00 0.00 0.00 70 1019.8
20260905105030 17 261 45.1 53.1 0.00 0.00 0.00 74 1019.8
20260905104030 17 269 45.1 56.3 0.00 0.00 0.00 75 1019.6
20260905103030 17 255 43.5 54.7 0.00 0.00 0.00 79 1019.6
20260905102030 17 265 43.5 56.3 0.00 0.00 0.00 79 1019.3
20260905101030 17 277 45.1 54.7 0.00 0.00 0.00 82 1019.4
20260905100030 17 259 48.3 62.8 0.00 0.00 0.00 79 1019.2
20260905095030 17 252 51.5 62.8 0.00 0.00 0.00 77 1018.9
20260905094030 17 272 45.1 54.7 0.00 0.00 0.00 75 1018.9
20260905093030 17 273 46.7 56.3 0.00 0.00 0.00 73 1018.7
20260905092029 17 256 45.1 53.1 0.00 0.00 0.00 75 1018.8
20260905091030 17 265 48.3 59.5 0.00 0.00 0.00 73 1018.5
20260905090030 17 262 53.1 64.4 0.00 0.00 0.00 73 1018.3
20260905085030 17 258 53.1 64.4 0.00 0.00 0.00 78 1018.1
20260905084030 17 258 49.9 64.4 0.00 0.00 0.00 78 1017.8
20260905083030 17 259 48.3 62.8 0.00 0.00 0.00 78 1017.8
20260905082030 17 262 51.5 61.2 0.00 0.00 0.00 78 1017.4
20260905081030 17 267 51.5 64.4 0.00 0.00 0.00 79 1017.3
20260905080030 17 263 48.3 56.3 0.00 0.00 0.00 80 1017.1
20260905075030 17 260 48.3 59.5 0.00 0.00 0.00 79 1017.0
20260905074029 17 253 45.1 57.9 0.00 0.00 0.00 79 1016.8
20260905073030 17 255 41.8 53.1 0.00 0.00 0.00 80 1016.7
20260905072030 17 260 45.1 54.7 0.00 0.00 0.00 79 1016.5
20260905071030 17 257 46.7 57.9 0.00 0.00 0.00 80 1016.4
20260905070030 17 255 41.8 56.3 0.00 0.00 0.00 79 1016.4
20260905065030 17 244 35.4 48.3 0.00 0.00 0.00 81 1016.4
20260905064030 17 244 35.4 46.7 0.00 0.00 0.00 81 1016.4
20260905063029 17 257 35.4 46.7 0.00 0.00 0.00 81 1016.3
20260905062030 17 240 32.2 45.1 0.00 0.00 0.00 82 1016.3
20260905061030 17 221 30.6 38.6 0.00 0.00 0.00 82 1016.3
20260905060030 17 245 29.0 43.5 0.00 0.00 0.00 81 1016.2
20260905055030 17 238 33.8 41.8 0.00 0.00 0.00 81 1016.1
20260905054030 17 230 29.0 41.8 0.00 0.00 0.00 81 1016.1
20260905053030 17 229 30.6 40.2 0.00 0.00 0.00 80 1015.9
20260905052029 17 235 27.4 38.6 0.00 0.00 0.00 81 1015.8
20260905051030 17 239 30.6 43.5 0.00 0.00 0.00 80 1015.7
20260905050030 17 243 27.4 38.6 0.00 0.00 0.00 80 1015.7
20260905045030 17 227 30.6 43.5 0.00 0.00 0.00 81 1015.6
20260905044030 17 240 29.0 40.2 0.00 0.00 0.00 81 1015.6
20260905043030 17 219 30.6 45.1 0.00 0.00 0.00 80 1015.6
20260905042029 17 243 30.6 45.1 0.00 0.00 0.00 80 1015.6
20260905041030 17 242 27.4 43.5 0.00 0.00 0.00 80 1015.5
20260905040030 17 239 27.4 40.2 0.00 0.00 0.00 79 1015.4
20260905035030 17 234 32.2 45.1 0.00 0.00 0.00 78 1015.3
20260905034030 17 245 32.2 43.5 0.00 0.00 0.00 78 1015.3
20260905033030 17 251 27.4 46.7 0.00 0.00 0.00 77 1015.4
20260905032030 17 246 33.8 43.5 0.00 0.00 0.00 78 1015.3
20260905031030 17 257 35.4 43.5 0.00 0.00 0.00 78 1015.2
20260905030030 17 254 33.8 46.7 0.00 0.00 0.00 77 1015.1
20260905025029 17 241 25.7 41.8 0.00 0.00 0.00 77 1015.1
20260905024030 17 259 32.2 41.8 0.00 0.00 0.00 76 1015.0
20260905023030 17 246 33.8 45.1 0.00 0.00 0.00 77 1015.0
20260905022030 17 238 30.6 43.5 0.00 0.00 0.00 77 1014.9
20260905021030 17 245 35.4 48.3 0.00 0.00 0.00 76 1014.8
20260905020030 17 257 37.0 48.3 0.00 0.00 0.00 76 1014.8
20260905015030 17 255 35.4 46.7 0.00 0.00 0.00 77 1014.7
20260905014030 17 256 37.0 45.1 0.00 0.00 0.00 77 1014.6
20260905013029 17 253 37.0 48.3 0.00 0.00 0.00 76 1014.6
20260905012030 17 259 35.4 46.7 0.00 0.00 0.00 76 1014.5
20260905011030 17 252 38.6 48.3 0.00 0.00 0.00 75 1014.6
20260905010029 17 256 38.6 51.5 0.00 0.00 0.00 76 1014.5
20260905005030 17 244 32.2 43.5 0.00 0.00 0.00 77 1014.5
20260905004030 17 256 35.4 45.1 0.00 0.00 0.00 77 1014.4
20260905003030 17 242 37.0 49.9 0.00 0.00 0.00 76 1014.4
20260905002030 17 257 40.2 46.7 0.00 0.00 0.00 76 1014.5
20260905001030 17 255 38.6 53.1 0.00 0.00 0.00 75 1014.5
20260905000030 18 250 41.8 51.5 0.00 0.00 0.00 75 1014.4
20260904235030 18 253 43.5 53.1 0.00 0.00 0.00 75 1014.3
20260904234030 18 263 41.8 51.5 0.00 0.00 0.00 76 1014.2
20260904233030 18 267 41.8 53.1 0.00 0.00 0.00 75 1014.4
20260904232029 18 265 41.8 51.5 0.00 0.00 0.00 76 1014.3
20260904231030 18 267 40.2 46.7 0.00 0.00 0.00 77 1014.2
20260904230030 18 268 41.8 49.9 0.00 0.00 0.00 75 1014.1
20260904225030 18 275 41.8 53.1 0.00 0.00 0.00 75 1014.1
20260904224030 18 263 41.8 49.9 0.00 0.00 0.00 76 1014.2
20260904223030 18 252 43.5 53.1 0.00 0.00 0.00 75 1014.0
20260904222030 18 256 41.8 53.1 0.00 0.00 0.00 76 1013.9
20260904221030 18 259 46.7 56.3 0.00 0.00 0.00 75 1013.8
20260904220030 18 254 45.1 59.5 0.00 0.00 0.05 75 1013.8
20260904215030 18 257 45.1 56.3 0.00 0.00 0.05 76 1013.6
20260904214030 18 253 45.1 59.5 0.00 0.00 0.05 74 1013.5
20260904213030 18 253 46.7 57.9 0.00 0.00 0.05 75 1013.5
20260904212029 18 263 46.7 59.5 0.00 0.00 0.05 76 1013.3
20260904211030 18 258 43.5 57.9 0.00 0.00 0.05 74 1013.3
20260904210030 18 254 45.1 57.9 0.00 0.00 0.05 75 1013.3
20260904205030 18 259 43.5 56.3 0.00 0.00 0.05 74 1013.2
20260904204030 18 239 35.4 48.3 0.00 0.00 0.05 77 1013.4
20260904203030 18 254 38.6 54.7 0.00 0.00 0.05 75 1013.3
20260904202029 18 253 38.6 51.5 0.00 0.00 0.05 77 1013.3
20260904201029 18 241 38.6 48.3 0.00 0.00 0.05 76 1013.3
20260904200030 18 255 41.8 53.1 0.00 0.00 0.05 75 1013.2
20260904195030 18 249 40.2 53.1 0.00 0.00 0.05 76 1013.2
20260904194030 18 253 41.8 53.1 0.00 0.00 0.05 75 1013.0
20260904193030 18 237 41.8 56.3 0.00 0.00 0.05 77 1012.9
20260904192030 18 244 41.8 54.7 0.00 0.00 0.05 76 1012.9
20260904191030 18 241 38.6 54.7 0.00 0.00 0.05 76 1012.8
20260904190030 18 247 38.6 49.9 0.00 0.00 0.05 75 1012.7
20260904185030 18 265 37.0 54.7 0.00 0.00 0.05 74 1012.6
20260904184030 18 259 46.7 59.5 0.00 0.00 0.05 72 1012.4
20260904183030 18 262 45.1 59.5 0.00 0.00 0.05 75 1012.3
20260904182030 18 256 45.1 59.5 0.00 0.00 0.05 76 1012.2
20260904181030 18 262 46.7 57.9 0.00 0.00 0.05 77 1012.1
20260904180030 18 263 48.3 57.9 0.00 0.00 0.05 77 1011.9
20260904175030 18 270 46.7 57.9 0.00 0.00 0.05 77 1011.7
20260904174030 18 285 46.7 56.3 0.00 0.00 0.05 76 1011.5
20260904173030 18 284 49.9 61.2 0.00 0.00 0.05 74 1011.5
20260904172030 18 272 48.3 57.9 0.00 0.00 0.05 74 1011.3
20260904171030 18 274 53.1 66.0 0.00 0.00 0.05 78 1011.1
20260904170030 18 267 53.1 62.8 0.00 0.00 0.05 78 1011.1
20260904165030 18 268 48.3 66.0 0.00 0.00 0.05 79 1011.1
20260904164030 18 268 51.5 61.2 0.00 0.00 0.05 79 1011.0
20260904163029 17 282 49.9 64.4 0.00 0.00 0.05 83 1010.9
20260904162030 18 255 43.5 57.9 0.00 0.00 0.05 82 1010.9
20260904161030 18 251 41.8 53.1 0.00 0.00 0.05 82 1010.8
20260904160029 18 249 45.1 57.9 0.00 0.00 0.05 82 1010.6
20260904155030 18 256 45.1 57.9 0.00 0.00 0.05 82 1010.7
20260904154029 18 255 51.5 66.0 0.00 0.00 0.05 82 1010.3
20260904153029 18 253 54.7 67.6 0.00 0.00 0.05 81 1010.2
20260904152030 18 255 51.5 69.2 0.00 0.00 0.05 82 1010.3
20260904151030 18 263 48.3 64.4 0.00 0.00 0.05 83 1010.3
20260904150030 18 258 45.1 62.8 0.00 0.00 0.05 84 1010.2
20260904145030 18 251 53.1 69.2 0.00 0.00 0.05 84 1010.0
20260904144029 18 257 48.3 62.8 0.00 0.00 0.05 85 1009.9
20260904143029 18 264 49.9 62.8 0.00 0.00 0.05 85 1009.7
20260904142030 18 242 43.5 59.5 0.00 0.00 0.05 88 1009.8